Portada
METAR-TAF:

METAR-TAF

Aeropuertos :

Laván, Irán

latitud: 26-48-37N, longitud: 53-21-22E, altitud: 23 m

Observación

El informe se hizo hace 37 minutos, a las 12:00 UTC
Viento 6 kt del norte-noroeste
Temperatura 31°C
Humedad 40%
Presión 1011 hPa
Visibilidad: 7000 m

METAR: OIBV 041200Z 33006KT 7000 NSC 31/16 Q1011

Hora: 17:07 (12:37 UTC)


TAF: falta

Observaciones y pronósticos meteorológicos de más de 4000 aeropuertos (mensajes METAR y TAF).

Los puntos amarillos y rojos representan las estaciones disponibles.

Ponga el ratón en el punto deseado para ver el nombre de la estación.

Haga clic para ver las observaciones y los pronósticos meteorológicos.

Para cambiar el mapa : haga clic en los botones verdes con una cruz de color negro para hacer un zoom, en el botón verde con un guión para alejar o en las flechas verdes para mapas adyacentes.


METAR-TAF: